sat.trackr.live / text

‹ back to catalog

HAWK-2A

NORAD 47505 · 2021-006CW

PAYLOAD ACTIVE UNKNOWN

§ Identity

Operator
Country
US
Launch date
2021-01-24
Launch site
AFETR
Launch vehicle
Mass (kg)
RCS (m²)

Purposes: tech_demo

External: N2YO · Heavens-Above · Gunter

§ Orbital elements

Epoch: 2026-09-19T20:39:05.108256Z

Period
93.77 min
Inclination
97.2235°
Eccentricity
0.0005220
Mean motion
15.35715139 rev/d
Perigee alt
455.2 km
Apogee alt
462.4 km
Semi-major
6,836.9 km
B*
1.1961e-4
RAAN
306.0386°
Arg perigee
211.1638°
Mean anomaly
148.9297°
Rev number
31,402

§ Raw data

HAWK-2A1 47505U 21006CW  26262.86047579  .00004077  00000+0  11961-3 0  99922 47505  97.2235 306.0386 0005220 211.1638 148.9297 15.35715139314028

JSON: /api/v1/satellites/47505 · /tle

For live sub-satellite position, see the globe view (requires WebGL).

§ Visibility from observer

Set your observer location to see the next 7 days of passes ≥ 10°. The values pass through the URL so the page stays shareable.

No JS? Fill the form by hand. The geolocation button needs JavaScript.